CZ-4 DEB, 26194

Orbit data source: Space-Track

CZ-4 DEB, 26194 is space debris in SSO originally from a launch on Thu, 14 Oct 1999 UTC launched from the Taiyaun Space Center, China (TSC). Debris objects in space refer to the collection of defunct objects orbiting the Earth. Examples of debris include non-operational satellites, rocket bodies, and fragments generated from explosions, collisions, or faulty payload assembly.

Loading next visibility...
Identifier
26194, 1999-057CG
Orbit
SSO
Country
Flag of CNCN / PRC
Related business
Manufacturer
Unknown
Mission
Spacecraft
Bus & Motor
Unknown
Mass
Unknown
Launch date (UTC)
1999-10-14 (26 years ago)
Launch vehicle
Unknown
Launch site
Taiyaun Space Center, China (TSC)
Object type
Payload
Rocket body
Debris
Shape & HBR
Unknown shape, 0.2 m
Radar Cross Section
Small (<0.1 m²)

Expand to show TLE details & history
Last TLE update: 12 hours ago

TLE from 12 hours ago
0 CZ-4 DEB
1 26194U 99057CG  25351.11414559  .00002028  00000-0  33642-3 0  9991
2 26194  98.1586 305.1137 0042362 190.1301 231.6096 14.70739787618143
Epoch: 2025-12-17T02:44Z
TLE epoch observation values (Epoch: 2025-12-17T02:44:22.178Z)
Latitude
60.41367°
Longitude
163.48712°
Altitude
687.591 km
Speed
7.508 km/s
True Right ascension
19h 22m 16s
True Declination
60° 15' 51"
Sunlit
Object was in daylight at epoch
Visualization orbit readout
Latitude
Unknown
Longitude
Unknown
Altitude
Unknown
Speed
Unknown
Apparent Right ascension
Unknown
Apparent Declination
Unknown
Sunlit
N/A
Visualization observer readout
Local Sidereal Time
13:22:39
Azimuth
Unknown
Elevation
Unknown
Doppler factor
Unknown
Orbital elements
Apogee altitude
685.569 km
Perigee altitude
625.975 km
Semi-major axis
7,033.909 km
Eccentricity
0.00424
Inclination
98.1586°
RAAN
305.1137°
Arg. of periapsis
190.1301°
True anomaly
231.23037°
Mean anomaly
231.6096°
Eccentric anomaly
231.41986°
Mean motion
3.67915 °/min
Orbital period
97.85 mins
BSTAR
0.00033642
Loading maneuver chart data...
Computing Atmospheric mass density...
Loading historical data...
Loading historical data...
Loading historical data...
Loading historical data...
Loading historical data...
Loading historical data...
Loading historical data...

Documentation

Showing up to 5 results
|